| time (UTC) | temp F | wind direction | speed knots | gust knots | rain 1hr in | rain 24hr in | rain mn in | humidity % | barometer mb |
| 20260903211512 | 81 | 185 | 9.6 | 14.8 | 0.00 | 0.00 | 0.00 | 21 | 1002.2 |
| 20260903211014 | 81 | 151 | 8.7 | 16.5 | 0.00 | 0.00 | 0.00 | 21 | 1002.3 |
| 20260903210509 | 80 | 152 | 12.2 | 22.6 | 0.00 | 0.00 | 0.00 | 21 | 1002.4 |
| 20260903210009 | 80 | 159 | 15.6 | 24.3 | 0.00 | 0.00 | 0.00 | 21 | 1002.5 |
| 20260903205506 | 80 | 132 | 12.2 | 20.9 | 0.00 | 0.00 | 0.00 | 21 | 1002.5 |
| 20260903205005 | 80 | 164 | 11.3 | 17.4 | 0.00 | 0.00 | 0.00 | 23 | 1002.6 |
| 20260903204506 | 80 | 119 | 9.6 | 17.4 | 0.00 | 0.00 | 0.00 | 23 | 1002.8 |
| 20260903204000 | 80 | 156 | 9.6 | 13.9 | 0.00 | 0.00 | 0.00 | 22 | 1002.9 |
| 20260903203601 | 79 | 163 | 6.1 | 16.5 | 0.00 | 0.00 | 0.00 | 23 | 1003.0 |
| 20260903203059 | 80 | 135 | 7.8 | 16.5 | 0.00 | 0.00 | 0.00 | 22 | 1003.0 |
| 20260903202557 | 79 | 188 | 9.6 | 20.0 | 0.00 | 0.00 | 0.00 | 21 | 1003.1 |
| 20260903202056 | 79 | 129 | 13.0 | 20.0 | 0.00 | 0.00 | 0.00 | 22 | 1003.2 |
| 20260903201554 | 80 | 195 | 8.7 | 20.9 | 0.00 | 0.00 | 0.00 | 21 | 1003.2 |
| 20260903201052 | 79 | 147 | 11.3 | 20.9 | 0.00 | 0.00 | 0.00 | 21 | 1003.4 |
| 20260903200552 | 79 | 128 | 12.2 | 19.1 | 0.00 | 0.00 | 0.00 | 21 | 1003.5 |
| 20260903200051 | 80 | 161 | 11.3 | 20.0 | 0.00 | 0.00 | 0.00 | 21 | 1003.5 |
| 20260903195548 | 79 | 151 | 12.2 | 23.5 | 0.00 | 0.00 | 0.00 | 20 | 1003.6 |
| 20260903195047 | 79 | 136 | 12.2 | 20.9 | 0.00 | 0.00 | 0.00 | 21 | 1003.6 |
| 20260903194546 | 79 | 138 | 13.9 | 20.9 | 0.00 | 0.00 | 0.00 | 21 | 1003.6 |
| 20260903194046 | 79 | 126 | 10.4 | 20.0 | 0.00 | 0.00 | 0.00 | 20 | 1003.8 |
| 20260903193542 | 78 | 154 | 13.9 | 20.0 | 0.00 | 0.00 | 0.00 | 22 | 1003.8 |
| 20260903193041 | 79 | 176 | 12.2 | 19.1 | 0.00 | 0.00 | 0.00 | 22 | 1003.8 |
| 20260903192540 | 79 | 155 | 10.4 | 18.2 | 0.00 | 0.00 | 0.00 | 20 | 1004.0 |
| 20260903192038 | 78 | 153 | 8.7 | 18.2 | 0.00 | 0.00 | 0.00 | 21 | 1003.9 |
| 20260903191539 | 78 | 140 | 7.0 | 19.1 | 0.00 | 0.00 | 0.00 | 21 | 1004.0 |
| 20260903191035 | 79 | 198 | 10.4 | 19.1 | 0.00 | 0.00 | 0.00 | 20 | 1004.1 |
| 20260903190536 | 78 | 151 | 12.2 | 20.0 | 0.00 | 0.00 | 0.00 | 21 | 1004.3 |
| 20260903190032 | 78 | 157 | 10.4 | 17.4 | 0.00 | 0.00 | 0.00 | 21 | 1004.3 |
| 20260903185530 | 78 | 200 | 10.4 | 16.5 | 0.00 | 0.00 | 0.00 | 20 | 1004.3 |
| 20260903185031 | 78 | 146 | 10.4 | 16.5 | 0.00 | 0.00 | 0.00 | 21 | 1004.4 |
| 20260903184527 | 78 | 166 | 13.0 | 15.6 | 0.00 | 0.00 | 0.00 | 20 | 1004.4 |
| 20260903184026 | 78 | 165 | 11.3 | 16.5 | 0.00 | 0.00 | 0.00 | 21 | 1004.5 |
| 20260903183525 | 78 | 150 | 12.2 | 17.4 | 0.00 | 0.00 | 0.00 | 21 | 1004.6 |
| 20260903183023 | 78 | 178 | 9.6 | 16.5 | 0.00 | 0.00 | 0.00 | 20 | 1004.5 |
| 20260903182521 | 77 | 127 | 9.6 | 18.2 | 0.00 | 0.00 | 0.00 | 22 | 1004.6 |
| 20260903182020 | 77 | 159 | 12.2 | 18.2 | 0.00 | 0.00 | 0.00 | 20 | 1004.8 |
| 20260903181518 | 77 | 226 | 12.2 | 20.0 | 0.00 | 0.00 | 0.00 | 21 | 1004.8 |
| 20260903181016 | 77 | 144 | 13.0 | 20.0 | 0.00 | 0.00 | 0.00 | 21 | 1004.9 |
| 20260903180518 | 77 | 140 | 14.8 | 20.0 | 0.00 | 0.00 | 0.00 | 21 | 1004.9 |
| 20260903180030 | 77 | 153 | 9.6 | 14.8 | 0.00 | 0.00 | 0.00 | 21 | 1004.9 |
| 20260903175512 | 78 | 172 | 8.7 | 20.0 | 0.00 | 0.00 | 0.00 | 21 | 1005.0 |
| 20260903175011 | 77 | 147 | 6.1 | 13.9 | 0.00 | 0.00 | 0.00 | 20 | 1004.9 |
| 20260903174509 | 77 | 203 | 9.6 | 14.8 | 0.00 | 0.00 | 0.00 | 20 | 1005.0 |
| 20260903174007 | 76 | 200 | 7.8 | 13.0 | 0.00 | 0.00 | 0.00 | 20 | 1005.1 |
| 20260903173506 | 76 | 221 | 5.2 | 14.8 | 0.00 | 0.00 | 0.00 | 20 | 1005.1 |
| 20260903173004 | 76 | 211 | 8.7 | 14.8 | 0.00 | 0.00 | 0.00 | 22 | 1005.0 |
| 20260903172503 | 76 | 253 | 8.7 | 13.9 | 0.00 | 0.00 | 0.00 | 21 | 1005.1 |
| 20260903172002 | 76 | 207 | 6.1 | 12.2 | 0.00 | 0.00 | 0.00 | 20 | 1005.2 |
| 20260903171600 | 75 | 192 | 5.2 | 10.4 | 0.00 | 0.00 | 0.00 | 20 | 1005.2 |
| 20260903171059 | 75 | 226 | 3.5 | 9.6 | 0.00 | 0.00 | 0.00 | 21 | 1005.2 |
| 20260903170602 | 75 | 227 | 4.3 | 9.6 | 0.00 | 0.00 | 0.00 | 22 | 1005.2 |
| 20260903170058 | 74 | 178 | 3.5 | 10.4 | 0.00 | 0.00 | 0.00 | 21 | 1005.3 |
| 20260903165558 | 74 | 202 | 4.3 | 11.3 | 0.00 | 0.00 | 0.00 | 22 | 1005.2 |
| 20260903165053 | 74 | 152 | 4.3 | 11.3 | 0.00 | 0.00 | 0.00 | 23 | 1005.2 |
| 20260903164601 | 74 | 136 | 5.2 | 12.2 | 0.00 | 0.00 | 0.00 | 22 | 1005.3 |
| 20260903164050 | 73 | 158 | 5.2 | 10.4 | 0.00 | 0.00 | 0.00 | 22 | 1005.3 |
| 20260903163549 | 73 | 122 | 3.5 | 8.7 | 0.00 | 0.00 | 0.00 | 25 | 1005.3 |
| 20260903163048 | 73 | 117 | 5.2 | 8.7 | 0.00 | 0.00 | 0.00 | 23 | 1005.3 |
| 20260903162545 | 73 | 125 | 6.1 | 8.7 | 0.00 | 0.00 | 0.00 | 27 | 1005.3 |
| 20260903162044 | 72 | 161 | 3.5 | 8.7 | 0.00 | 0.00 | 0.00 | 26 | 1005.4 |
| 20260903161543 | 71 | 153 | 4.3 | 7.8 | 0.00 | 0.00 | 0.00 | 23 | 1005.5 |
| 20260903161041 | 71 | 163 | 4.3 | 8.7 | 0.00 | 0.00 | 0.00 | 25 | 1005.5 |
| 20260903160540 | 71 | 124 | 5.2 | 8.7 | 0.00 | 0.00 | 0.00 | 27 | 1005.6 |
| 20260903160039 | 70 | 143 | 4.3 | 7.8 | 0.00 | 0.00 | 0.00 | 28 | 1005.6 |
| 20260903155540 | 69 | 178 | 6.1 | 8.7 | 0.00 | 0.00 | 0.00 | 27 | 1005.5 |
| 20260903155035 | 69 | 147 | 7.0 | 8.7 | 0.00 | 0.00 | 0.00 | 27 | 1005.6 |
| 20260903154535 | 68 | 157 | 5.2 | 10.4 | 0.00 | 0.00 | 0.00 | 30 | 1005.6 |
| 20260903154032 | 67 | 159 | 7.8 | 10.4 | 0.00 | 0.00 | 0.00 | 31 | 1005.7 |
| 20260903153530 | 66 | 135 | 6.1 | 9.6 | 0.00 | 0.00 | 0.00 | 33 | 1005.7 |
| 20260903153030 | 65 | 165 | 4.3 | 7.8 | 0.00 | 0.00 | 0.00 | 35 | 1005.9 |
| 20260903152530 | 65 | 171 | 5.2 | 7.8 | 0.00 | 0.00 | 0.00 | 34 | 1006.0 |
| 20260903152026 | 64 | 172 | 4.3 | 7.8 | 0.00 | 0.00 | 0.00 | 35 | 1005.9 |
| 20260903151528 | 64 | 158 | 5.2 | 7.8 | 0.00 | 0.00 | 0.00 | 35 | 1006.0 |
| 20260903151025 | 63 | 155 | 4.3 | 7.0 | 0.00 | 0.00 | 0.00 | 34 | 1006.0 |
| 20260903150523 | 63 | 176 | 5.2 | 7.0 | 0.00 | 0.00 | 0.00 | 36 | 1006.0 |
| 20260903150022 | 62 | 186 | 4.3 | 7.0 | 0.00 | 0.00 | 0.00 | 38 | 1006.0 |
| 20260903145520 | 60 | 165 | 6.1 | 7.8 | 0.00 | 0.00 | 0.00 | 39 | 1006.1 |
| 20260903145019 | 59 | 147 | 5.2 | 6.1 | 0.00 | 0.00 | 0.00 | 43 | 1006.1 |
| 20260903144517 | 58 | 153 | 4.3 | 7.8 | 0.00 | 0.00 | 0.00 | 44 | 1006.1 |
| 20260903144016 | 57 | 190 | 4.3 | 7.8 | 0.00 | 0.00 | 0.00 | 45 | 1006.1 |
| 20260903143516 | 57 | 143 | 4.3 | 6.1 | 0.00 | 0.00 | 0.00 | 46 | 1006.0 |
| 20260903143014 | 56 | 158 | 4.3 | 7.0 | 0.00 | 0.00 | 0.00 | 47 | 1006.1 |
| 20260903142511 | 55 | 159 | 3.5 | 6.1 | 0.00 | 0.00 | 0.00 | 52 | 1006.1 |
| 20260903142010 | 54 | 170 | 2.6 | 4.3 | 0.00 | 0.00 | 0.00 | 49 | 1006.1 |
| 20260903141508 | 53 | 198 | 2.6 | 4.3 | 0.00 | 0.00 | 0.00 | 47 | 1006.1 |
| 20260903141010 | 51 | 161 | 2.6 | 4.3 | 0.00 | 0.00 | 0.00 | 50 | 1006.1 |
| 20260903140506 | 50 | 161 | 2.6 | 4.3 | 0.00 | 0.00 | 0.00 | 45 | 1006.1 |
| 20260903140004 | 47 | 147 | 2.6 | 4.3 | 0.00 | 0.00 | 0.00 | 30 | 1006.0 |
| 20260903135502 | 45 | 146 | 2.6 | 5.2 | 0.00 | 0.00 | 0.00 | 19 | 1006.0 |
| 20260903135001 | 43 | 192 | 0.9 | 4.3 | 0.00 | 0.00 | 0.00 | 19 | 1005.9 |
| 20260903134559 | 43 | 176 | 1.7 | 4.3 | 0.00 | 0.00 | 0.00 | 20 | 1005.9 |
| 20260903134059 | 43 | 176 | 0.9 | 2.6 | 0.00 | 0.00 | 0.00 | 17 | 1005.8 |
| 20260903133556 | 43 | 1 | 1.7 | 2.6 | 0.00 | 0.00 | 0.00 | 22 | 1005.8 |
| 20260903133055 | 43 | 12 | 0.0 | 2.6 | 0.00 | 0.00 | 0.00 | 16 | 1005.7 |
| 20260903132553 | 43 | 12 | 0.0 | 2.6 | 0.00 | 0.00 | 0.00 | 15 | 1005.5 |
| 20260903132051 | 43 | 21 | 0.0 | 6.1 | 0.00 | 0.00 | 0.00 | 14 | 1005.5 |
| 20260903131550 | 42 | 77 | 0.0 | 6.1 | 0.00 | 0.00 | 0.00 | 26 | 1005.4 |
| 20260903131051 | 43 | 163 | 0.9 | 1.7 | 0.00 | 0.00 | 0.00 | 28 | 1005.3 |
| 20260903130550 | 42 | 163 | 0.9 | 2.6 | 0.00 | 0.00 | 0.00 | 21 | 1005.1 |
| 20260903130109 | 42 | 163 | 0.9 | 3.5 | 0.00 | 0.00 | 0.00 | 21 | 1005.0 |
| 20260903125544 | 42 | 163 | 0.9 | 3.5 | 0.00 | 0.00 | 0.00 | 23 | 1005.0 |
| 20260903125046 | 42 | 163 | 0.0 | 1.7 | 0.00 | 0.00 | 0.00 | 19 | 1005.0 |
| 20260903124541 | 41 | 163 | 0.9 | 1.7 | 0.00 | 0.00 | 0.00 | 21 | 1004.9 |
| 20260903124039 | 41 | 163 | 0.0 | 3.5 | 0.00 | 0.00 | 0.00 | 24 | 1004.9 |
| 20260903123538 | 41 | 163 | 1.7 | 4.3 | 0.00 | 0.00 | 0.00 | 30 | 1004.9 |
| 20260903123037 | 42 | 163 | 2.6 | 4.3 | 0.00 | 0.00 | 0.00 | 28 | 1004.9 |
| 20260903122538 | 42 | 163 | 2.6 | 4.3 | 0.00 | 0.00 | 0.00 | 28 | 1004.8 |
| 20260903122034 | 42 | 189 | 2.6 | 4.3 | 0.00 | 0.00 | 0.00 | 30 | 1004.8 |
| 20260903121540 | 43 | 189 | 0.0 | 2.6 | 0.00 | 0.00 | 0.00 | 19 | 1004.6 |
| 20260903121030 | 42 | 189 | 0.0 | 2.6 | 0.00 | 0.00 | 0.00 | 21 | 1004.6 |
| 20260903120532 | 42 | 189 | 0.0 | 2.6 | 0.00 | 0.00 | 0.00 | 25 | 1004.5 |
| 20260903120030 | 42 | 189 | 0.0 | 0.9 | 0.00 | 0.00 | 0.00 | 22 | 1004.5 |
| 20260903115526 | 42 | 189 | 0.0 | 1.7 | 0.00 | 0.00 | 0.00 | 18 | 1004.5 |
| 20260903115025 | 42 | 189 | 0.0 | 2.6 | 0.00 | 0.00 | 0.00 | 17 | 1004.4 |
| 20260903114524 | 41 | 189 | 0.0 | 2.6 | 0.00 | 0.00 | 0.00 | 16 | 1004.3 |
| 20260903114021 | 41 | 189 | 0.0 | 1.7 | 0.00 | 0.00 | 0.00 | 15 | 1004.4 |
| 20260903113521 | 41 | 189 | 0.0 | 3.5 | 0.00 | 0.00 | 0.00 | 17 | 1004.3 |
| 20260903113027 | 41 | 189 | 0.9 | 3.5 | 0.00 | 0.00 | 0.00 | 24 | 1004.3 |
| 20260903112517 | 42 | 189 | 0.9 | 3.5 | 0.00 | 0.00 | 0.00 | 27 | 1004.3 |
| 20260903112018 | 44 | 99 | 0.0 | 0.0 | 0.00 | 0.00 | 0.00 | 15 | 1004.2 |
| 20260903111514 | 44 | 99 | 0.0 | 1.7 | 0.00 | 0.00 | 0.00 | 10 | 1004.2 |
| 20260903111013 | 44 | 99 | 0.0 | 3.5 | 0.00 | 0.00 | 0.00 | 7 | 1004.1 |
| 20260903110512 | 43 | 99 | 0.0 | 1.7 | 0.00 | 0.00 | 0.00 | 16 | 1004.0 |
| 20260903110017 | 43 | 99 | 0.0 | 2.6 | 0.00 | 0.00 | 0.00 | 23 | 1003.9 |
| 20260903105508 | 43 | 234 | 0.9 | 2.6 | 0.00 | 0.00 | 0.00 | 26 | 1003.9 |
| 20260903105009 | 43 | 234 | 0.0 | 2.6 | 0.00 | 0.00 | 0.00 | 31 | 1003.8 |
| 20260903104506 | 43 | 234 | 0.0 | 4.3 | 0.00 | 0.00 | 0.00 | 34 | 1003.8 |
| 20260903104004 | 44 | 234 | 2.6 | 4.3 | 0.00 | 0.00 | 0.00 | 32 | 1003.8 |
| 20260903103505 | 45 | 120 | 0.0 | 2.6 | 0.00 | 0.00 | 0.00 | 26 | 1003.7 |
| 20260903103001 | 46 | 120 | 0.9 | 2.6 | 0.00 | 0.00 | 0.00 | 21 | 1003.7 |
| 20260903102559 | 45 | 120 | 0.0 | 3.5 | 0.00 | 0.00 | 0.00 | 18 | 1003.6 |
| 20260903102103 | 45 | 120 | 0.0 | 3.5 | 0.00 | 0.00 | 0.00 | 15 | 1003.6 |
| 20260903101605 | 45 | 219 | 0.0 | 0.0 | 0.00 | 0.00 | 0.00 | 13 | 1003.5 |
| 20260903101057 | 44 | 219 | 0.0 | 0.9 | 0.00 | 0.00 | 0.00 | 12 | 1003.5 |
| 20260903100554 | 43 | 219 | 0.0 | 3.5 | 0.00 | 0.00 | 0.00 | 25 | 1003.4 |
| 20260903100053 | 43 | 219 | 0.0 | 7.0 | 0.00 | 0.00 | 0.00 | 36 | 1003.4 |
| 20260903095551 | 43 | 224 | 3.5 | 7.0 | 0.00 | 0.00 | 0.00 | 38 | 1003.3 |
| 20260903095050 | 44 | 201 | 1.7 | 6.1 | 0.00 | 0.00 | 0.00 | 47 | 1003.2 |
| 20260903094554 | 47 | 201 | 1.7 | 6.1 | 0.00 | 0.00 | 0.00 | 50 | 1003.2 |
| 20260903094047 | 48 | 105 | 1.7 | 5.2 | 0.00 | 0.00 | 0.00 | 46 | 1003.1 |
| 20260903093547 | 48 | 105 | 0.9 | 5.2 | 0.00 | 0.00 | 0.00 | 43 | 1003.1 |
| 20260903093047 | 48 | 202 | 0.0 | 3.5 | 0.00 | 0.00 | 0.00 | 46 | 1003.0 |
| 20260903092546 | 48 | 202 | 0.0 | 4.3 | 0.00 | 0.00 | 0.00 | 41 | 1003.1 |
| 20260903092045 | 48 | 146 | 0.0 | 4.3 | 0.00 | 0.00 | 0.00 | 45 | 1003.0 |
| 20260903091543 | 47 | 146 | 0.9 | 4.3 | 0.00 | 0.00 | 0.00 | 49 | 1002.9 |
| 20260903091046 | 47 | 265 | 0.0 | 2.6 | 0.00 | 0.00 | 0.00 | 48 | 1002.9 |
| 20260903090542 | 47 | 265 | 0.9 | 2.6 | 0.00 | 0.00 | 0.00 | 53 | 1002.8 |
| 20260903090041 | 48 | 265 | 0.9 | 3.5 | 0.00 | 0.00 | 0.00 | 53 | 1002.7 |
| 20260903085540 | 49 | 265 | 0.0 | 3.5 | 0.00 | 0.00 | 0.00 | 53 | 1002.6 |
| 20260903085040 | 50 | 265 | 0.9 | 2.6 | 0.00 | 0.00 | 0.00 | 50 | 1002.7 |
| 20260903084540 | 51 | 265 | 0.0 | 5.2 | 0.00 | 0.00 | 0.00 | 53 | 1002.7 |
| 20260903084040 | 51 | 265 | 0.0 | 5.2 | 0.00 | 0.00 | 0.00 | 54 | 1002.6 |
| 20260903083539 | 52 | 265 | 0.0 | 0.0 | 0.00 | 0.00 | 0.00 | 54 | 1002.7 |
| 20260903083039 | 52 | 265 | 0.0 | 0.0 | 0.00 | 0.00 | 0.00 | 49 | 1002.6 |
| 20260903082537 | 51 | 265 | 0.0 | 2.6 | 0.00 | 0.00 | 0.00 | 53 | 1002.5 |
| 20260903082037 | 49 | 265 | 0.9 | 2.6 | 0.00 | 0.00 | 0.00 | 54 | 1002.6 |
| 20260903081542 | 48 | 265 | 0.9 | 2.6 | 0.00 | 0.00 | 0.00 | 54 | 1002.6 |
| 20260903081036 | 47 | 265 | 0.9 | 2.6 | 0.00 | 0.00 | 0.00 | 54 | 1002.5 |
| 20260903080518 | 47 | 265 | 1.7 | 2.6 | 0.00 | 0.00 | 0.00 | 55 | 1002.5 |
| 20260903080035 | 48 | 265 | 0.0 | 3.5 | 0.00 | 0.00 | 0.00 | 55 | 1002.4 |
| 20260903075535 | 50 | 265 | 1.7 | 3.5 | 0.00 | 0.00 | 0.00 | 54 | 1002.3 |
| 20260903075033 | 52 | 103 | 0.0 | 0.0 | 0.00 | 0.00 | 0.00 | 53 | 1002.3 |
| 20260903074534 | 52 | 103 | 0.0 | 0.0 | 0.00 | 0.00 | 0.00 | 53 | 1002.3 |
| 20260903074035 | 53 | 103 | 0.0 | 0.0 | 0.00 | 0.00 | 0.00 | 54 | 1002.3 |
| 20260903073530 | 53 | 103 | 0.0 | 0.0 | 0.00 | 0.00 | 0.00 | 54 | 1002.2 |
| 20260903073031 | 52 | 103 | 0.0 | 0.0 | 0.00 | 0.00 | 0.00 | 54 | 1002.2 |
| 20260903072529 | 51 | 103 | 0.0 | 3.5 | 0.00 | 0.00 | 0.00 | 54 | 1002.1 |
| 20260903072034 | 51 | 103 | 0.0 | 3.5 | 0.00 | 0.00 | 0.00 | 54 | 1002.0 |
| 20260903071528 | 50 | 239 | 0.0 | 4.3 | 0.00 | 0.00 | 0.00 | 54 | 1001.9 |
| 20260903071026 | 51 | 239 | 0.0 | 6.1 | 0.00 | 0.00 | 0.00 | 54 | 1001.9 |
| 20260903070524 | 54 | 234 | 2.6 | 4.3 | 0.00 | 0.00 | 0.00 | 52 | 1001.7 |
| 20260903070033 | 56 | 234 | 1.7 | 4.3 | 0.00 | 0.00 | 0.00 | 49 | 1001.7 |
| 20260903065523 | 58 | 234 | 1.7 | 4.3 | 0.00 | 0.00 | 0.00 | 47 | 1001.8 |
| 20260903065021 | 57 | 234 | 0.0 | 7.0 | 0.00 | 0.00 | 0.00 | 49 | 1001.7 |
| 20260903064521 | 58 | 228 | 4.3 | 7.0 | 0.00 | 0.00 | 0.00 | 50 | 1001.7 |
| 20260903064019 | 59 | 97 | 0.0 | 2.6 | 0.00 | 0.00 | 0.00 | 51 | 1001.6 |
| 20260903063518 | 60 | 97 | 0.0 | 2.6 | 0.00 | 0.00 | 0.00 | 46 | 1001.7 |
| 20260903063016 | 62 | 97 | 0.9 | 2.6 | 0.00 | 0.00 | 0.00 | 45 | 1001.6 |
| 20260903062516 | 62 | 97 | 0.9 | 2.6 | 0.00 | 0.00 | 0.00 | 42 | 1001.4 |
| 20260903062018 | 62 | 132 | 0.0 | 2.6 | 0.00 | 0.00 | 0.00 | 43 | 1001.4 |
| 20260903061515 | 62 | 132 | 1.7 | 3.5 | 0.00 | 0.00 | 0.00 | 44 | 1001.4 |
| 20260903061012 | 63 | 132 | 1.7 | 3.5 | 0.00 | 0.00 | 0.00 | 45 | 1001.4 |
| 20260903060512 | 64 | 143 | 2.6 | 4.3 | 0.00 | 0.00 | 0.00 | 44 | 1001.4 |
| 20260903060012 | 64 | 61 | 0.9 | 4.3 | 0.00 | 0.00 | 0.00 | 41 | 1001.3 |
| 20260903055510 | 64 | 329 | 1.7 | 7.0 | 0.00 | 0.00 | 0.00 | 41 | 1001.2 |
| 20260903055009 | 64 | 21 | 2.6 | 5.2 | 0.00 | 0.00 | 0.00 | 42 | 1001.2 |
| 20260903054529 | 63 | 62 | 0.0 | 4.3 | 0.00 | 0.00 | 0.00 | 41 | 1001.3 |
| 20260903054010 | 63 | 62 | 1.7 | 4.3 | 0.00 | 0.00 | 0.00 | 45 | 1001.2 |
| 20260903053509 | 63 | 212 | 0.9 | 4.3 | 0.00 | 0.00 | 0.00 | 44 | 1001.2 |
| 20260903053008 | 64 | 212 | 1.7 | 4.3 | 0.00 | 0.00 | 0.00 | 42 | 1001.2 |
| 20260903052508 | 64 | 350 | 1.7 | 3.5 | 0.00 | 0.00 | 0.00 | 43 | 1001.2 |
| 20260903052008 | 64 | 259 | 0.0 | 1.7 | 0.00 | 0.00 | 0.00 | 41 | 1001.2 |
| 20260903051508 | 65 | 330 | 0.0 | 1.7 | 0.00 | 0.00 | 0.00 | 41 | 1001.3 |
| 20260903051011 | 65 | 330 | 0.0 | 3.5 | 0.00 | 0.00 | 0.00 | 41 | 1001.4 |
| 20260903050507 | 65 | 330 | 1.7 | 3.5 | 0.00 | 0.00 | 0.00 | 39 | 1001.4 |
| 20260903050009 | 66 | 5 | 0.0 | 0.9 | 0.00 | 0.00 | 0.00 | 39 | 1001.4 |
| 20260903045510 | 66 | 9 | 0.0 | 1.7 | 0.00 | 0.00 | 0.00 | 39 | 1001.5 |
| 20260903045007 | 66 | 18 | 0.0 | 1.7 | 0.00 | 0.00 | 0.00 | 42 | 1001.4 |
| 20260903044507 | 66 | 14 | 0.0 | 3.5 | 0.00 | 0.00 | 0.00 | 38 | 1001.6 |
| 20260903044007 | 65 | 5 | 1.7 | 3.5 | 0.00 | 0.00 | 0.00 | 38 | 1001.6 |
| 20260903043506 | 65 | 307 | 1.7 | 3.5 | 0.00 | 0.00 | 0.00 | 37 | 1001.6 |
| 20260903043009 | 65 | 310 | 1.7 | 5.2 | 0.00 | 0.00 | 0.00 | 38 | 1001.6 |
| 20260903042506 | 65 | 310 | 2.6 | 5.2 | 0.00 | 0.00 | 0.00 | 39 | 1001.6 |
| 20260903042106 | 65 | 318 | 3.5 | 5.2 | 0.00 | 0.00 | 0.00 | 39 | 1001.5 |
| 20260903041506 | 66 | 318 | 3.5 | 5.2 | 0.00 | 0.00 | 0.00 | 38 | 1001.5 |
| 20260903041006 | 66 | 307 | 1.7 | 5.2 | 0.00 | 0.00 | 0.00 | 39 | 1001.4 |
| 20260903040505 | 67 | 307 | 3.5 | 7.0 | 0.00 | 0.00 | 0.00 | 36 | 1001.4 |
| 20260903040008 | 69 | 278 | 4.3 | 7.0 | 0.00 | 0.00 | 0.00 | 35 | 1001.3 |
| 20260903035505 | 70 | 328 | 1.7 | 5.2 | 0.00 | 0.00 | 0.00 | 33 | 1001.2 |
| 20260903035004 | 70 | 16 | 1.7 | 5.2 | 0.00 | 0.00 | 0.00 | 33 | 1001.1 |
| 20260903034504 | 70 | 326 | 1.7 | 4.3 | 0.00 | 0.00 | 0.00 | 33 | 1001.1 |
| 20260903034004 | 70 | 3 | 2.6 | 8.7 | 0.00 | 0.00 | 0.00 | 36 | 1001.1 |
| 20260903033503 | 70 | 330 | 3.5 | 8.7 | 0.00 | 0.00 | 0.00 | 31 | 1001.1 |
| 20260903033003 | 69 | 1 | 5.2 | 7.8 | 0.00 | 0.00 | 0.00 | 30 | 1001.1 |
| 20260903032504 | 70 | 100 | 1.7 | 5.2 | 0.00 | 0.00 | 0.00 | 25 | 1001.0 |
| 20260903032003 | 71 | 163 | 2.6 | 7.0 | 0.00 | 0.00 | 0.00 | 23 | 1000.8 |
| 20260903031503 | 71 | 187 | 3.5 | 8.7 | 0.00 | 0.00 | 0.00 | 23 | 1000.8 |
| 20260903031006 | 72 | 197 | 6.1 | 10.4 | 0.00 | 0.00 | 0.00 | 21 | 1000.7 |
| 20260903030503 | 72 | 198 | 6.1 | 11.3 | 0.00 | 0.00 | 0.00 | 22 | 1000.6 |
| 20260903030009 | 72 | 178 | 4.3 | 8.7 | 0.00 | 0.00 | 0.00 | 22 | 1000.5 |
| 20260903025502 | 72 | 175 | 6.1 | 9.6 | 0.00 | 0.00 | 0.00 | 21 | 1000.3 |
| 20260903025002 | 73 | 170 | 5.2 | 11.3 | 0.00 | 0.00 | 0.00 | 20 | 1000.3 |
| 20260903024503 | 73 | 195 | 7.0 | 13.0 | 0.00 | 0.00 | 0.00 | 20 | 1000.3 |
| 20260903024001 | 72 | 172 | 7.8 | 13.0 | 0.00 | 0.00 | 0.00 | 21 | 1000.3 |
| 20260903023501 | 71 | 199 | 7.8 | 10.4 | 0.00 | 0.00 | 0.00 | 21 | 1000.3 |
| 20260903023002 | 71 | 187 | 7.0 | 10.4 | 0.00 | 0.00 | 0.00 | 21 | 1000.2 |
| 20260903022502 | 71 | 181 | 6.1 | 13.9 | 0.00 | 0.00 | 0.00 | 22 | 1000.2 |
| 20260903022002 | 71 | 244 | 9.6 | 13.9 | 0.00 | 0.00 | 0.00 | 21 | 1000.1 |
| 20260903021502 | 69 | 188 | 6.1 | 9.6 | 0.00 | 0.00 | 0.00 | 23 | 1000.1 |
| 20260903021001 | 70 | 174 | 4.3 | 7.8 | 0.00 | 0.00 | 0.00 | 23 | 1000.2 |
| 20260903020502 | 70 | 171 | 5.2 | 7.8 | 0.00 | 0.00 | 0.00 | 23 | 1000.2 |
| 20260903020100 | 71 | 197 | 4.3 | 7.0 | 0.00 | 0.00 | 0.00 | 23 | 1000.2 |
| 20260903015600 | 71 | 174 | 5.2 | 7.0 | 0.00 | 0.00 | 0.00 | 22 | 1000.2 |
| 20260903015100 | 72 | 169 | 4.3 | 6.1 | 0.00 | 0.00 | 0.00 | 23 | 1000.1 |
| 20260903014600 | 73 | 184 | 4.3 | 7.8 | 0.00 | 0.00 | 0.00 | 22 | 1000.1 |
| 20260903014100 | 74 | 191 | 4.3 | 12.2 | 0.00 | 0.00 | 0.00 | 22 | 1000.1 |
| 20260903013559 | 75 | 203 | 6.1 | 16.5 | 0.00 | 0.00 | 0.00 | 20 | 1000.2 |
| 20260903013105 | 76 | 212 | 9.6 | 16.5 | 0.00 | 0.00 | 0.00 | 19 | 1000.2 |
| 20260903012600 | 76 | 211 | 8.7 | 13.9 | 0.00 | 0.00 | 0.00 | 19 | 1000.2 |
| 20260903012100 | 76 | 222 | 6.1 | 9.6 | 0.00 | 0.00 | 0.00 | 21 | 1000.2 |
| 20260903011606 | 76 | 215 | 3.5 | 8.7 | 0.00 | 0.00 | 0.00 | 23 | 1000.3 |
| 20260903011058 | 77 | 201 | 4.3 | 10.4 | 0.00 | 0.00 | 0.00 | 22 | 1000.3 |
| 20260903010557 | 77 | 192 | 7.0 | 17.4 | 0.00 | 0.00 | 0.00 | 20 | 1000.3 |
| 20260903010111 | 78 | 192 | 9.6 | 17.4 | 0.00 | 0.00 | 0.00 | 19 | 1000.3 |
| 20260903005556 | 78 | 184 | 10.4 | 13.9 | 0.00 | 0.00 | 0.00 | 20 | 1000.2 |
| 20260903005055 | 78 | 135 | 10.4 | 16.5 | 0.00 | 0.00 | 0.00 | 20 | 1000.1 |
| 20260903004559 | 78 | 158 | 9.6 | 13.9 | 0.00 | 0.00 | 0.00 | 22 | 1000.1 |
| 20260903004055 | 79 | 168 | 8.7 | 17.4 | 0.00 | 0.00 | 0.00 | 22 | 1000.1 |
| 20260903003554 | 79 | 148 | 10.4 | 17.4 | 0.00 | 0.00 | 0.00 | 21 | 1000.1 |
| 20260903003056 | 80 | 157 | 12.2 | 18.2 | 0.00 | 0.00 | 0.00 | 20 | 1000.2 |
| 20260903002553 | 81 | 139 | 10.4 | 17.4 | 0.00 | 0.00 | 0.00 | 20 | 1000.2 |
| 20260903002054 | 81 | 168 | 12.2 | 20.0 | 0.00 | 0.00 | 0.00 | 19 | 1000.3 |
| 20260903001553 | 81 | 153 | 14.8 | 17.4 | 0.00 | 0.00 | 0.00 | 21 | 1000.2 |
| 20260903001053 | 82 | 144 | 13.0 | 21.7 | 0.00 | 0.00 | 0.00 | 19 | 1000.3 |
| 20260903000552 | 81 | 153 | 17.4 | 21.7 | 0.00 | 0.00 | 0.00 | 20 | 1000.2 |
| 20260903000053 | 81 | 154 | 13.0 | 20.9 | 0.00 | 0.00 | 0.00 | 21 | 1000.2 |
| 20260902235551 | 81 | 142 | 13.9 | 20.9 | 0.00 | 0.00 | 0.00 | 20 | 1000.3 |
| 20260902235053 | 81 | 182 | 14.8 | 20.9 | 0.00 | 0.00 | 0.00 | 20 | 1000.3 |
| 20260902234548 | 81 | 130 | 13.9 | 21.7 | 0.00 | 0.00 | 0.00 | 20 | 1000.4 |
| 20260902234049 | 81 | 163 | 16.5 | 21.7 | 0.00 | 0.00 | 0.00 | 20 | 1000.4 |
| 20260902233547 | 80 | 169 | 13.0 | 25.2 | 0.00 | 0.00 | 0.00 | 21 | 1000.5 |
| 20260902233047 | 80 | 154 | 14.8 | 26.1 | 0.00 | 0.00 | 0.00 | 21 | 1000.5 |
| 20260902232545 | 79 | 174 | 13.0 | 23.5 | 0.00 | 0.00 | 0.00 | 22 | 1000.5 |
| 20260902232046 | 79 | 129 | 13.9 | 20.9 | 0.00 | 0.00 | 0.00 | 21 | 1000.5 |
| 20260902231550 | 80 | 163 | 13.0 | 20.0 | 0.00 | 0.00 | 0.00 | 21 | 1000.5 |
| 20260902231048 | 81 | 197 | 13.0 | 20.0 | 0.00 | 0.00 | 0.00 | 21 | 1000.6 |
| 20260902230547 | 81 | 158 | 13.0 | 22.6 | 0.00 | 0.00 | 0.00 | 21 | 1000.6 |
| 20260902230044 | 82 | 178 | 15.6 | 19.1 | 0.00 | 0.00 | 0.00 | 20 | 1000.6 |
| 20260902225544 | 80 | 176 | 12.2 | 19.1 | 0.00 | 0.00 | 0.00 | 22 | 1000.6 |
| 20260902225044 | 80 | 176 | 11.3 | 22.6 | 0.00 | 0.00 | 0.00 | 22 | 1000.6 |
| 20260902224543 | 79 | 157 | 14.8 | 22.6 | 0.00 | 0.00 | 0.00 | 22 | 1000.6 |
| 20260902224042 | 80 | 136 | 14.8 | 25.2 | 0.00 | 0.00 | 0.00 | 22 | 1000.6 |
| 20260902223542 | 80 | 157 | 17.4 | 25.2 | 0.00 | 0.00 | 0.00 | 21 | 1000.6 |
| 20260902223041 | 81 | 143 | 15.6 | 24.3 | 0.00 | 0.00 | 0.00 | 22 | 1000.7 |
| 20260902222541 | 80 | 184 | 13.0 | 20.9 | 0.00 | 0.00 | 0.00 | 21 | 1000.7 |
| 20260902222043 | 80 | 170 | 13.0 | 20.0 | 0.00 | 0.00 | 0.00 | 22 | 1000.9 |
| 20260902221539 | 80 | 160 | 14.8 | 20.9 | 0.00 | 0.00 | 0.00 | 23 | 1000.8 |
| 20260902221039 | 81 | 149 | 13.0 | 20.9 | 0.00 | 0.00 | 0.00 | 22 | 1001.0 |
| 20260902220539 | 81 | 148 | 14.8 | 21.7 | 0.00 | 0.00 | 0.00 | 22 | 1001.0 |
| 20260902220040 | 81 | 188 | 13.9 | 20.0 | 0.00 | 0.00 | 0.00 | 22 | 1001.0 |
| 20260902215536 | 82 | 150 | 12.2 | 26.1 | 0.00 | 0.00 | 0.00 | 22 | 1001.1 |
| 20260902215038 | 82 | 151 | 15.6 | 27.8 | 0.00 | 0.00 | 0.00 | 22 | 1001.1 |
| 20260902214538 | 81 | 139 | 9.6 | 18.2 | 0.00 | 0.00 | 0.00 | 22 | 1001.2 |
| 20260902214035 | 81 | 181 | 11.3 | 20.9 | 0.00 | 0.00 | 0.00 | 22 | 1001.3 |
| 20260902213635 | 81 | 201 | 13.0 | 20.9 | 0.00 | 0.00 | 0.00 | 22 | 1001.4 |
| 20260902213033 | 80 | 194 | 13.9 | 26.9 | 0.00 | 0.00 | 0.00 | 22 | 1001.4 |
| 20260902212533 | 80 | 197 | 17.4 | 26.9 | 0.00 | 0.00 | 0.00 | 23 | 1001.5 |
| 20260902212033 | 81 | 169 | 10.4 | 17.4 | 0.00 | 0.00 | 0.00 | 23 | 1001.3 |